| time (UTC) | temp F | wind direction | speed MPH | gust MPH | rain 1hr in | rain 24hr in | rain mn in | humidity % | barometer mb |
| 20260906143230 | 70 | 10 | 7.0 | 0.0 | 0.00 | 0.00 | 0.00 | 37 | 1025.0 |
| 20260906142154 | 68 | 20 | 7.0 | 0.0 | 0.00 | 0.00 | 0.00 | 37 | |
| 20260906140233 | 70 | 10 | 6.0 | 0.0 | 0.00 | 0.00 | 0.00 | 35 | 1025.0 |
| 20260906133231 | 70 | 180 | 3.0 | 0.0 | 0.00 | 0.00 | 0.00 | 35 | 1025.0 |
| 20260906132456 | 70 | 260 | 7.0 | 0.0 | 0.00 | 0.00 | 0.00 | 35 | |
| 20260906130238 | 70 | 100 | 3.0 | 0.0 | 0.00 | 0.00 | 0.00 | 35 | 1025.0 |
| 20260906123232 | 70 | 340 | 5.0 | 0.0 | 0.00 | 0.00 | 0.00 | 35 | 1026.0 |
| 20260906122157 | 68 | 0 | 5.0 | 0.0 | 0.00 | 0.00 | 0.00 | 37 | |
| 20260906120237 | 68 | 10 | 3.0 | 0.0 | 0.00 | 0.00 | 0.00 | 34 | 1026.0 |
| 20260906113231 | 66 | 10 | 5.0 | 0.0 | 0.00 | 0.00 | 0.00 | 37 | 1026.0 |
| 20260906112158 | 68 | 340 | 9.0 | 0.0 | 0.00 | 0.00 | 0.00 | 40 | |
| 20260906110240 | 68 | 360 | 7.0 | 0.0 | 0.00 | 0.00 | 0.00 | 37 | 1026.0 |
| 20260906103231 | 68 | 320 | 8.0 | 0.0 | 0.00 | 0.00 | 0.00 | 37 | 1026.0 |
| 20260906102614 | 68 | 300 | 9.0 | 0.0 | 0.00 | 0.00 | 0.00 | 40 | |
| 20260906100236 | 66 | 340 | 10.0 | 0.0 | 0.00 | 0.00 | 0.00 | 39 | 1026.0 |
| 20260906093231 | 64 | 350 | 8.0 | 0.0 | 0.00 | 0.00 | 0.00 | 42 | 1026.0 |
| 20260906092211 | 64 | 300 | 7.0 | 0.0 | 0.00 | 0.00 | 0.00 | 48 | |
| 20260906090234 | 64 | 290 | 7.0 | 0.0 | 0.00 | 0.00 | 0.00 | 52 | 1026.0 |
| 20260906083230 | 64 | 290 | 7.0 | 0.0 | 0.00 | 0.00 | 0.00 | 48 | 1025.0 |
| 20260906082213 | 63 | 320 | 7.0 | 0.0 | 0.00 | 0.00 | 0.00 | 55 | |
| 20260906080235 | 63 | 0 | 5.0 | 0.0 | 0.00 | 0.00 | 0.00 | 55 | 1025.0 |
| 20260906073231 | 63 | 230 | 7.0 | 0.0 | 0.00 | 0.00 | 0.00 | 59 | 1025.0 |
| 20260906072526 | 61 | 230 | 5.0 | 0.0 | 0.00 | 0.00 | 0.00 | 67 | |
| 20260906070305 | 59 | 240 | 6.0 | 0.0 | 0.00 | 0.00 | 0.00 | 67 | 1025.0 |
| 20260906063232 | 59 | 260 | 7.0 | 0.0 | 0.00 | 0.00 | 0.00 | 67 | 1025.0 |
| 20260906062211 | 57 | 240 | 9.0 | 0.0 | 0.00 | 0.00 | 0.00 | 71 | |
| 20260906060232 | 57 | 240 | 8.0 | 0.0 | 0.00 | 0.00 | 0.00 | 76 | 1024.0 |
| 20260906053216 | 52 | 230 | 7.0 | 0.0 | 0.00 | 0.00 | 0.00 | 87 | 1024.0 |
| 20260906052138 | 52 | 230 | 7.0 | 0.0 | 0.00 | 0.00 | 0.00 | 81 | |
| 20260906050234 | 50 | 230 | 7.0 | 0.0 | 0.00 | 0.00 | 0.00 | 87 | 1024.0 |
| 20260906043224 | 52 | 230 | 6.0 | 0.0 | 0.00 | 0.00 | 0.00 | 81 | 1024.0 |
| 20260906042629 | 52 | 230 | 5.0 | 0.0 | 0.00 | 0.00 | 0.00 | 87 | |
| 20260906040231 | 54 | 240 | 5.0 | 0.0 | 0.00 | 0.00 | 0.00 | 81 | 1023.0 |
| 20260906033224 | 55 | 200 | 3.0 | 0.0 | 0.00 | 0.00 | 0.00 | 82 | 1023.0 |
| 20260906032226 | 55 | 220 | 5.0 | 0.0 | 0.00 | 0.00 | 0.00 | 76 | |
| 20260906030234 | 54 | 220 | 5.0 | 0.0 | 0.00 | 0.00 | 0.00 | 81 | 1023.0 |
| 20260906023225 | 55 | 220 | 5.0 | 0.0 | 0.00 | 0.00 | 0.00 | 82 | 1023.0 |
| 20260906022211 | 55 | 220 | 5.0 | 0.0 | 0.00 | 0.00 | 0.00 | 82 | |
| 20260906020235 | 55 | 220 | 6.0 | 0.0 | 0.00 | 0.00 | 0.00 | 82 | 1023.0 |
| 20260906013224 | 55 | 250 | 3.0 | 0.0 | 0.00 | 0.00 | 0.00 | 82 | 1022.0 |
| 20260906012532 | 57 | 250 | 5.0 | 0.0 | 0.00 | 0.00 | 0.00 | 76 | |
| 20260906010236 | 55 | 240 | 5.0 | 0.0 | 0.00 | 0.00 | 0.00 | 82 | 1022.0 |
| 20260906003224 | 57 | 200 | 5.0 | 0.0 | 0.00 | 0.00 | 0.00 | 82 | 1022.0 |
| 20260906002226 | 57 | 200 | 5.0 | 0.0 | 0.00 | 0.00 | 0.00 | 76 | |
| 20260906000234 | 57 | 210 | 5.0 | 0.0 | 0.00 | 0.00 | 0.00 | 82 | 1022.0 |
| 20260905233223 | 59 | 0 | 2.0 | 0.0 | 0.00 | 0.00 | 0.00 | 77 | 1022.0 |
| 20260905232210 | 61 | 0 | 2.0 | 0.0 | 0.00 | 0.00 | 0.00 | 67 | |
| 20260905230237 | 59 | 360 | 6.0 | 0.0 | 0.00 | 0.00 | 0.00 | 67 | 1022.0 |
| 20260905223224 | 59 | 360 | 6.0 | 0.0 | 0.00 | 0.00 | 0.00 | 67 | 1022.0 |
| 20260905222630 | 59 | 10 | 9.0 | 0.0 | 0.00 | 0.00 | 0.00 | 67 | |
| 20260905220236 | 59 | 10 | 9.0 | 0.0 | 0.00 | 0.00 | 0.00 | 67 | 1022.0 |
| 20260905213223 | 59 | 250 | 5.0 | 0.0 | 0.00 | 0.00 | 0.00 | 67 | 1021.0 |
| 20260905212225 | 59 | 240 | 7.0 | 0.0 | 0.00 | 0.00 | 0.00 | 62 | |
| 20260905210236 | 59 | 240 | 7.0 | 0.0 | 0.00 | 0.00 | 0.00 | 62 | 1021.0 |
| 20260905210059 | 59 | 220 | 10.0 | 0.0 | 0.00 | 0.00 | 0.00 | 62 | 1020.0 |
| 20260905205137 | 59 | 220 | 10.0 | 0.0 | 0.00 | 0.00 | 0.00 | 62 | 1020.0 |
| 20260905204737 | 59 | 220 | 10.0 | 0.0 | 0.00 | 0.00 | 0.00 | 62 | 1020.0 |
| 20260905204138 | 59 | 220 | 10.0 | 0.0 | 0.00 | 0.00 | 0.00 | 62 | 1020.0 |
| 20260905203238 | 59 | 220 | 10.0 | 0.0 | 0.00 | 0.00 | 0.00 | 62 | 1020.0 |
| 20260905202228 | 64 | 230 | 12.0 | 0.0 | 0.00 | 0.00 | 0.00 | 52 | |
| 20260905200938 | 61 | 230 | 10.0 | 0.0 | 0.00 | 0.00 | 0.00 | 59 | 1020.0 |
| 20260905200341 | 61 | 230 | 10.0 | 0.0 | 0.00 | 0.00 | 0.00 | 59 | 1020.0 |
| 20260905195938 | 63 | 230 | 8.0 | 0.0 | 0.00 | 0.00 | 0.00 | 59 | 1020.0 |
| 20260905195238 | 63 | 230 | 8.0 | 0.0 | 0.00 | 0.00 | 0.00 | 59 | 1020.0 |
| 20260905194138 | 63 | 230 | 8.0 | 0.0 | 0.00 | 0.00 | 0.00 | 59 | 1020.0 |
| 20260905193451 | 63 | 230 | 8.0 | 0.0 | 0.00 | 0.00 | 0.00 | 59 | 1020.0 |
| 20260905193238 | 63 | 230 | 8.0 | 0.0 | 0.00 | 0.00 | 0.00 | 59 | 1020.0 |
| 20260905192739 | 64 | 250 | 8.0 | 0.0 | 0.00 | 0.00 | 0.00 | 52 | 1020.0 |
| 20260905192624 | 64 | 240 | 9.0 | 0.0 | 0.00 | 0.00 | 0.00 | 52 | |
| 20260905192145 | 64 | 250 | 8.0 | 0.0 | 0.00 | 0.00 | 0.00 | 52 | 1020.0 |
| 20260905191638 | 64 | 250 | 8.0 | 0.0 | 0.00 | 0.00 | 0.00 | 52 | 1020.0 |
| 20260905182211 | 66 | 260 | 7.0 | 0.0 | 0.00 | 0.00 | 0.00 | 48 | |
| 20260905181338 | 66 | 260 | 8.0 | 0.0 | 0.00 | 0.00 | 0.00 | 48 | 1019.0 |
| 20260905181138 | 66 | 260 | 8.0 | 0.0 | 0.00 | 0.00 | 0.00 | 48 | 1019.0 |
| 20260905180738 | 66 | 260 | 8.0 | 0.0 | 0.00 | 0.00 | 0.00 | 48 | 1019.0 |
| 20260905180341 | 66 | 260 | 8.0 | 0.0 | 0.00 | 0.00 | 0.00 | 48 | 1019.0 |
| 20260905180140 | 68 | 280 | 7.0 | 0.0 | 0.00 | 0.00 | 0.00 | 45 | 1019.0 |
| 20260905175438 | 68 | 280 | 7.0 | 0.0 | 0.00 | 0.00 | 0.00 | 45 | 1019.0 |
| 20260905175238 | 68 | 280 | 7.0 | 0.0 | 0.00 | 0.00 | 0.00 | 45 | 1019.0 |
| 20260905174738 | 68 | 280 | 7.0 | 0.0 | 0.00 | 0.00 | 0.00 | 45 | 1019.0 |
| 20260905174138 | 68 | 280 | 7.0 | 0.0 | 0.00 | 0.00 | 0.00 | 45 | 1019.0 |
| 20260905173452 | 68 | 280 | 7.0 | 0.0 | 0.00 | 0.00 | 0.00 | 45 | 1019.0 |
| 20260905172738 | 70 | 270 | 12.0 | 0.0 | 0.00 | 0.00 | 0.00 | 43 | 1019.0 |
| 20260905172248 | 70 | 270 | 12.0 | 0.0 | 0.00 | 0.00 | 0.00 | 43 | |
| 20260905172152 | 70 | 270 | 12.0 | 0.0 | 0.00 | 0.00 | 0.00 | 43 | 1019.0 |
| 20260905171600 | 70 | 270 | 12.0 | 0.0 | 0.00 | 0.00 | 0.00 | 43 | 1019.0 |
| 20260905170552 | 70 | 270 | 12.0 | 0.0 | 0.00 | 0.00 | 0.00 | 43 | 1019.0 |
| 20260905170237 | 70 | 270 | 12.0 | 0.0 | 0.00 | 0.00 | 0.00 | 43 | 1019.0 |
| 20260905163838 | 70 | 270 | 15.0 | 0.0 | 0.00 | 0.00 | 0.00 | 40 | 1018.0 |
| 20260905163231 | 70 | 270 | 15.0 | 0.0 | 0.00 | 0.00 | 0.00 | 40 | 1018.0 |
| 20260905162937 | 70 | 280 | 9.0 | 0.0 | 0.00 | 0.00 | 0.00 | 40 | 1018.0 |
| 20260905162616 | 70 | 280 | 14.0 | 0.0 | 0.00 | 0.00 | 0.00 | 40 | |
| 20260905162245 | 70 | 280 | 9.0 | 0.0 | 0.00 | 0.00 | 0.00 | 40 | 1018.0 |
| 20260905161639 | 70 | 280 | 9.0 | 0.0 | 0.00 | 0.00 | 0.00 | 40 | 1018.0 |
| 20260905161139 | 70 | 280 | 9.0 | 0.0 | 0.00 | 0.00 | 0.00 | 40 | 1018.0 |
| 20260905160838 | 70 | 280 | 9.0 | 0.0 | 0.00 | 0.00 | 0.00 | 40 | 1018.0 |
| 20260905160340 | 70 | 280 | 9.0 | 0.0 | 0.00 | 0.00 | 0.00 | 40 | 1018.0 |
| 20260905154738 | 72 | 270 | 14.0 | 0.0 | 0.00 | 0.00 | 0.00 | 37 | 1018.0 |
| 20260905154559 | 72 | 270 | 14.0 | 0.0 | 0.00 | 0.00 | 0.00 | 37 | 1018.0 |
| 20260905154238 | 72 | 270 | 14.0 | 0.0 | 0.00 | 0.00 | 0.00 | 37 | 1018.0 |
| 20260905152306 | 73 | 260 | 14.0 | 0.0 | 0.00 | 0.00 | 0.00 | 33 | |
| 20260905151849 | 72 | 260 | 16.0 | 0.0 | 0.00 | 0.00 | 0.00 | 35 | 1018.0 |
| 20260905151139 | 72 | 260 | 16.0 | 0.0 | 0.00 | 0.00 | 0.00 | 35 | 1018.0 |
| 20260905150637 | 72 | 260 | 16.0 | 0.0 | 0.00 | 0.00 | 0.00 | 35 | 1018.0 |
| 20260905145938 | 73 | 260 | 20.0 | 0.0 | 0.00 | 0.00 | 0.00 | 33 | 1017.0 |
| 20260905145638 | 73 | 260 | 20.0 | 0.0 | 0.00 | 0.00 | 0.00 | 33 | 1017.0 |
| 20260905145137 | 73 | 260 | 20.0 | 0.0 | 0.00 | 0.00 | 0.00 | 33 | 1017.0 |
| 20260905144238 | 73 | 260 | 20.0 | 0.0 | 0.00 | 0.00 | 0.00 | 33 | 1017.0 |
| 20260905143739 | 73 | 260 | 20.0 | 0.0 | 0.00 | 0.00 | 0.00 | 33 | 1017.0 |